Location: Bergnerzell
(49.1816°N, 10.2565°E)
Time: 08:13:44
(UTC+00:00)

Cosmos 2082 Rocket - Pass Details

Date: 23 May 2024
Orbit: 832 x 853 km, 71.0° (Epoch: 15 June)

Event Time Altitude Azimuth Distance (km) Brightness Sun altitude
Exits shadow 01:48:50 - 256° (WSW) 2,604 4.3 -12.3°
Reaches altitude 10° 01:49:13 10° 258° (WSW) 2,484 4.2 -12.3°
Maximum altitude 01:54:01 27° 316° (NW) 1,585 3.7 -11.8°
Drops below altitude 10° 01:58:51 10° 13° (NNE) 2,492 5.8 -11.3°
Sets 02:01:42 0° 26° (NNE) 3,429 7.2 -11.0°
